TimeMST,TemperatureF,Dew PointF,Humidity,Sea Level PressureIn,VisibilityMPH,Wind Direction,Wind SpeedMPH,Gust SpeedMPH,PrecipitationIn,Events,Conditions,WindDirDegrees,DateUTC
12:17 AM,-2.2,-7.6,78,29.91,-9999.0,North,-9999.0,-,N/A,,Scattered Clouds,0,2013-12-07 07:17:00
12:37 AM,-2.2,-5.8,85,29.90,-9999.0,North,-9999.0,-,N/A,,Unknown,0,2013-12-07 07:37:00
12:57 AM,-0.4,-5.8,78,29.90,-9999.0,North,-9999.0,-,N/A,,Overcast,0,2013-12-07 07:57:00
1:17 AM,-0.4,-5.8,78,29.89,-9999.0,North,-9999.0,-,N/A,,Overcast,0,2013-12-07 08:17:00
1:37 AM,-2.2,-7.6,78,29.88,-9999.0,North,-9999.0,-,N/A,,Mostly Cloudy,0,2013-12-07 08:37:00
1:57 AM,-2.2,-5.8,85,29.89,-9999.0,North,-9999.0,-,N/A,,Unknown,0,2013-12-07 08:57:00
2:17 AM,-2.2,-5.8,85,29.89,-9999.0,North,-9999.0,-,N/A,,Unknown,0,2013-12-07 09:17:00
2:37 AM,-0.4,-5.8,78,29.89,-9999.0,North,-9999.0,-,N/A,,Overcast,0,2013-12-07 09:37:00
2:57 AM,-0.4,-5.8,78,29.88,-9999.0,SSW,16.1,-,N/A,,Overcast,210,2013-12-07 09:57:00
3:17 AM,-0.4,-5.8,78,29.88,-9999.0,North,-9999.0,-,N/A,,Unknown,0,2013-12-07 10:17:00
3:37 AM,-0.4,-5.8,78,29.87,-9999.0,North,-9999.0,-,N/A,,Unknown,0,2013-12-07 10:37:00
3:57 AM,-0.4,-5.8,78,29.86,-9999.0,SSW,21.9,-,N/A,,Unknown,200,2013-12-07 10:57:00
4:17 AM,-0.4,-5.8,78,29.85,-9999.0,North,-9999.0,-,N/A,,Overcast,0,2013-12-07 11:17:00
4:37 AM,-0.4,-4.0,85,29.84,-9999.0,North,-9999.0,-,N/A,,Unknown,0,2013-12-07 11:37:00
4:57 AM,-0.4,-4.0,85,29.83,-9999.0,North,-9999.0,-,N/A,,Unknown,0,2013-12-07 11:57:00
5:17 AM,-0.4,-4.0,85,29.83,-9999.0,North,-9999.0,-,N/A,,Unknown,0,2013-12-07 12:17:00
5:37 AM,-0.4,-4.0,85,29.82,-9999.0,North,-9999.0,-,N/A,,Unknown,0,2013-12-07 12:37:00
5:57 AM,1.4,-4.0,78,29.82,-9999.0,North,-9999.0,-,N/A,,Overcast,0,2013-12-07 12:57:00
6:17 AM,1.4,-4.0,78,29.82,-9999.0,North,-9999.0,-,N/A,,Overcast,0,2013-12-07 13:17:00
6:37 AM,1.4,-4.0,78,29.81,-9999.0,North,-9999.0,-,N/A,,Overcast,0,2013-12-07 13:37:00
6:57 AM,1.4,-4.0,78,29.81,-9999.0,North,-9999.0,-,N/A,,Overcast,0,2013-12-07 13:57:00
7:17 AM,1.4,-4.0,78,29.80,-9999.0,North,-9999.0,-,N/A,,Overcast,0,2013-12-07 14:17:00
7:37 AM,1.4,-4.0,78,29.80,-9999.0,North,-9999.0,-,N/A,,Overcast,0,2013-12-07 14:37:00
7:57 AM,1.4,-4.0,78,29.80,-9999.0,North,-9999.0,-,N/A,,Unknown,0,2013-12-07 14:57:00
8:17 AM,1.4,-4.0,78,29.80,-9999.0,North,-9999.0,-,N/A,,Unknown,0,2013-12-07 15:17:00
8:37 AM,1.4,-2.2,85,29.79,-9999.0,North,-9999.0,-,N/A,,Unknown,0,2013-12-07 15:37:00
8:57 AM,3.2,-2.2,78,29.79,-9999.0,North,-9999.0,-,N/A,,Overcast,0,2013-12-07 15:57:00
9:17 AM,3.2,-0.4,85,29.79,-9999.0,North,-9999.0,-,N/A,,Unknown,0,2013-12-07 16:17:00
9:37 AM,3.2,-0.4,85,29.80,-9999.0,North,-9999.0,-,N/A,,Overcast,0,2013-12-07 16:37:00
9:57 AM,3.2,-0.4,85,29.78,-9999.0,North,-9999.0,-,N/A,,Unknown,0,2013-12-07 16:57:00
10:17 AM,5.0,1.4,85,29.77,-9999.0,SSW,26.5,-,N/A,,Unknown,210,2013-12-07 17:17:00
10:37 AM,5.0,1.4,85,29.76,-9999.0,North,-9999.0,-,N/A,,Unknown,0,2013-12-07 17:37:00
10:57 AM,5.0,1.4,85,29.76,-9999.0,North,-9999.0,-,N/A,,Unknown,0,2013-12-07 17:57:00
11:17 AM,5.0,1.4,85,29.74,-9999.0,North,-9999.0,-,N/A,,Unknown,0,2013-12-07 18:17:00
11:37 AM,5.0,1.4,85,29.72,-9999.0,SW,32.2,38.0,N/A,,Unknown,220,2013-12-07 18:37:00
11:57 AM,5.0,1.4,85,29.70,-9999.0,North,-9999.0,-,N/A,,Overcast,0,2013-12-07 18:57:00
12:17 PM,5.0,3.2,92,29.67,-9999.0,North,-9999.0,-,N/A,,Unknown,0,2013-12-07 19:17:00
12:37 PM,5.0,1.4,85,29.66,-9999.0,North,-9999.0,-,N/A,,Overcast,0,2013-12-07 19:37:00
12:57 PM,5.0,1.4,85,29.64,-9999.0,North,-9999.0,-,N/A,,Unknown,0,2013-12-07 19:57:00
1:17 PM,5.0,1.4,85,29.64,-9999.0,North,-9999.0,-,N/A,,Unknown,0,2013-12-07 20:17:00
1:37 PM,5.0,1.4,85,29.62,-9999.0,North,-9999.0,-,N/A,,Unknown,0,2013-12-07 20:37:00
1:57 PM,5.0,1.4,85,29.61,-9999.0,North,-9999.0,-,N/A,,Overcast,0,2013-12-07 20:57:00
2:17 PM,5.0,1.4,85,29.60,-9999.0,North,-9999.0,-,N/A,,Overcast,0,2013-12-07 21:17:00
2:37 PM,5.0,1.4,85,29.61,-9999.0,North,-9999.0,-,N/A,,Overcast,0,2013-12-07 21:37:00
2:57 PM,5.0,1.4,85,29.60,-9999.0,North,-9999.0,-,N/A,,Overcast,0,2013-12-07 21:57:00
3:17 PM,5.0,1.4,85,29.60,-9999.0,North,-9999.0,-,N/A,,Overcast,0,2013-12-07 22:17:00
3:37 PM,5.0,1.4,85,29.60,-9999.0,North,-9999.0,-,N/A,,Overcast,0,2013-12-07 22:37:00
3:57 PM,5.0,1.4,85,29.59,-9999.0,North,-9999.0,-,N/A,,Overcast,0,2013-12-07 22:57:00
4:17 PM,5.0,1.4,85,29.59,-9999.0,North,-9999.0,-,N/A,,Overcast,0,2013-12-07 23:17:00
4:37 PM,5.0,1.4,85,29.60,-9999.0,North,-9999.0,-,N/A,,Unknown,0,2013-12-07 23:37:00
4:57 PM,5.0,1.4,85,29.59,-9999.0,North,-9999.0,-,N/A,,Overcast,0,2013-12-07 23:57:00
5:17 PM,5.0,1.4,85,29.59,-9999.0,North,-9999.0,-,N/A,,Overcast,0,2013-12-08 00:17:00
5:37 PM,5.0,1.4,85,29.60,-9999.0,North,-9999.0,-,N/A,,Overcast,0,2013-12-08 00:37:00
5:57 PM,5.0,1.4,85,29.60,-9999.0,North,-9999.0,-,N/A,,Overcast,0,2013-12-08 00:57:00
6:17 PM,5.0,1.4,85,29.60,-9999.0,North,-9999.0,-,N/A,,Overcast,0,2013-12-08 01:17:00
6:37 PM,5.0,1.4,85,29.61,-9999.0,North,-9999.0,-,N/A,,Overcast,0,2013-12-08 01:37:00
6:57 PM,5.0,1.4,85,29.61,-9999.0,North,-9999.0,-,N/A,,Overcast,0,2013-12-08 01:57:00
7:17 PM,5.0,-0.4,78,29.61,-9999.0,North,-9999.0,-,N/A,,Overcast,0,2013-12-08 02:17:00
7:37 PM,5.0,1.4,85,29.61,-9999.0,North,-9999.0,-,N/A,,Overcast,0,2013-12-08 02:37:00
7:57 PM,5.0,1.4,85,29.60,-9999.0,North,-9999.0,-,N/A,,Overcast,0,2013-12-08 02:57:00
8:17 PM,5.0,1.4,85,29.60,-9999.0,North,-9999.0,-,N/A,,Overcast,0,2013-12-08 03:17:00
8:37 PM,5.0,1.4,85,29.59,-9999.0,North,-9999.0,-,N/A,,Overcast,0,2013-12-08 03:37:00
8:57 PM,5.0,1.4,85,29.59,-9999.0,North,-9999.0,-,N/A,,Overcast,0,2013-12-08 03:57:00
9:17 PM,5.0,1.4,85,29.58,-9999.0,North,-9999.0,-,N/A,,Overcast,0,2013-12-08 04:17:00
9:37 PM,5.0,1.4,85,29.58,-9999.0,North,-9999.0,-,N/A,,Overcast,0,2013-12-08 04:37:00
9:57 PM,5.0,1.4,85,29.58,-9999.0,North,-9999.0,-,N/A,,Overcast,0,2013-12-08 04:57:00
10:17 PM,5.0,1.4,85,29.58,-9999.0,North,-9999.0,-,N/A,,Overcast,0,2013-12-08 05:17:00
10:37 PM,5.0,1.4,85,29.57,-9999.0,North,-9999.0,-,N/A,,Overcast,0,2013-12-08 05:37:00
10:57 PM,5.0,1.4,85,29.57,-9999.0,North,-9999.0,-,N/A,,Overcast,0,2013-12-08 05:57:00
11:17 PM,5.0,1.4,85,29.56,-9999.0,North,-9999.0,-,N/A,,Overcast,0,2013-12-08 06:17:00
11:37 PM,5.0,1.4,85,29.55,-9999.0,North,-9999.0,-,N/A,,Overcast,0,2013-12-08 06:37:00
11:57 PM,5.0,1.4,85,29.55,-9999.0,North,-9999.0,-,N/A,,Overcast,0,2013-12-08 06:57:00